| time (UTC) | temp C | wind direction | speed KPH | gust KPH | rain 1hr cm | rain 24hr cm | rain mn cm | humidity % | barometer mb |
| 20260506115044 | 12 | 94 | 6.4 | 14.5 | 0.00 | 0.00 | 0.00 | 100 | 1014.2 |
| 20260506115034 | 12 | 89 | 6.4 | 12.9 | 0.00 | 0.00 | 0.00 | 100 | 1014.1 |
| 20260506114032 | 12 | 81 | 6.4 | 14.5 | 0.00 | 0.00 | 0.00 | 100 | 1014.2 |
| 20260506113535 | 12 | 109 | 8.0 | 19.3 | 0.00 | 0.00 | 0.00 | 100 | 1014.3 |
| 20260506113029 | 12 | 119 | 6.4 | 19.3 | 0.00 | 0.00 | 0.00 | 100 | 1014.3 |
| 20260506112534 | 11 | 78 | 6.4 | 12.9 | 0.00 | 0.00 | 0.00 | 100 | 1014.4 |
| 20260506112039 | 11 | 98 | 6.4 | 12.9 | 0.00 | 0.00 | 0.00 | 100 | 1014.4 |
| 20260506111531 | 11 | 98 | 6.4 | 16.1 | 0.00 | 0.00 | 0.00 | 100 | 1014.4 |
| 20260506111029 | 11 | 117 | 6.4 | 16.1 | 0.00 | 0.00 | 0.00 | 100 | 1014.5 |
| 20260506110540 | 11 | 106 | 4.8 | 14.5 | 0.00 | 0.00 | 0.00 | 100 | 1014.5 |
| 20260506110302 | 11 | 94 | 4.8 | 11.3 | 0.00 | 0.00 | 0.00 | 100 | 1014.5 |
| 20260506105527 | 10 | 78 | 4.8 | 11.3 | 0.00 | 0.00 | 0.00 | 100 | 1014.5 |
| 20260506105028 | 10 | 82 | 4.8 | 9.7 | 0.00 | 0.00 | 0.00 | 100 | 1014.5 |
| 20260506104526 | 10 | 86 | 4.8 | 9.7 | 0.00 | 0.00 | 0.00 | 100 | 1014.5 |
| 20260506104259 | 9 | 95 | 4.8 | 12.9 | 0.00 | 0.00 | 0.00 | 100 | 1014.5 |
| 20260506103523 | 9 | 66 | 6.4 | 12.9 | 0.00 | 0.00 | 0.00 | 100 | 1014.5 |
| 20260506103026 | 9 | 76 | 6.4 | 11.3 | 0.00 | 0.00 | 0.00 | 100 | 1014.5 |
| 20260506102521 | 9 | 72 | 6.4 | 11.3 | 0.00 | 0.00 | 0.00 | 100 | 1014.6 |
| 20260506102019 | 8 | 89 | 4.8 | 11.3 | 0.00 | 0.00 | 0.00 | 100 | 1014.7 |
| 20260506101519 | 8 | 80 | 6.4 | 12.9 | 0.00 | 0.00 | 0.00 | 100 | 1014.7 |
| 20260506101017 | 8 | 122 | 6.4 | 12.9 | 0.00 | 0.00 | 0.00 | 100 | 1014.6 |
| 20260506100517 | 8 | 71 | 6.4 | 11.3 | 0.00 | 0.00 | 0.00 | 100 | 1014.5 |
| 20260506100255 | 8 | 85 | 6.4 | 12.9 | 0.00 | 0.00 | 0.00 | 100 | 1014.6 |
| 20260506095518 | 8 | 92 | 6.4 | 12.9 | 0.00 | 0.00 | 0.00 | 100 | 1014.5 |
| 20260506095019 | 8 | 69 | 6.4 | 12.9 | 0.00 | 0.00 | 0.00 | 100 | 1014.6 |
| 20260506094517 | 8 | 78 | 6.4 | 12.9 | 0.00 | 0.00 | 0.00 | 100 | 1014.6 |
| 20260506094016 | 9 | 71 | 6.4 | 11.3 | 0.00 | 0.00 | 0.00 | 100 | 1014.7 |
| 20260506093517 | 9 | 65 | 6.4 | 11.3 | 0.00 | 0.00 | 0.00 | 100 | 1014.7 |
| 20260506093022 | 9 | 80 | 8.0 | 16.1 | 0.00 | 0.00 | 0.00 | 100 | 1014.8 |
| 20260506092523 | 9 | 75 | 6.4 | 16.1 | 0.00 | 0.00 | 0.00 | 100 | 1014.8 |
| 20260506092022 | 9 | 80 | 6.4 | 11.3 | 0.00 | 0.00 | 0.00 | 100 | 1014.8 |
| 20260506091520 | 9 | 80 | 6.4 | 11.3 | 0.00 | 0.00 | 0.00 | 100 | 1014.9 |
| 20260506091015 | 10 | 71 | 6.4 | 12.9 | 0.00 | 0.00 | 0.00 | 100 | 1014.9 |
| 20260506090516 | 10 | 59 | 6.4 | 12.9 | 0.00 | 0.00 | 0.00 | 100 | 1015.0 |
| 20260506090248 | 10 | 94 | 4.8 | 11.3 | 0.00 | 0.00 | 0.00 | 100 | 1015.1 |
| 20260506085516 | 10 | 67 | 4.8 | 11.3 | 0.00 | 0.00 | 0.00 | 100 | 1015.2 |
| 20260506085248 | 9 | 104 | 4.8 | 11.3 | 0.00 | 0.00 | 0.00 | 100 | 1015.3 |
| 20260506084516 | 9 | 83 | 4.8 | 9.7 | 0.00 | 0.00 | 0.00 | 100 | 1015.4 |
| 20260506084025 | 8 | 76 | 4.8 | 9.7 | 0.00 | 0.00 | 0.00 | 100 | 1015.4 |
| 20260506084021 | 8 | 83 | 4.8 | 9.7 | 0.00 | 0.00 | 0.00 | 100 | 1015.5 |
| 20260506083002 | 8 | 65 | 4.8 | 9.7 | 0.00 | 0.00 | 0.00 | 100 | 1015.6 |
| 20260506082535 | 8 | 55 | 3.2 | 8.0 | 0.00 | 0.00 | 0.00 | 100 | 1015.6 |
| 20260506082516 | 8 | 66 | 4.8 | 8.0 | 0.00 | 0.00 | 0.00 | 100 | 1015.5 |
| 20260506081501 | 8 | 52 | 3.2 | 8.0 | 0.00 | 0.00 | 0.00 | 100 | 1015.7 |
| 20260506081001 | 8 | 52 | 4.8 | 8.0 | 0.00 | 0.00 | 0.00 | 100 | 1015.8 |
| 20260506080502 | 8 | 39 | 3.2 | 8.0 | 0.00 | 0.00 | 0.00 | 100 | 1015.6 |
| 20260506073452 | 6 | 258 | 1.6 | 4.8 | 0.00 | 0.00 | 0.00 | 100 | 1015.7 |
| 20260506073238 | 6 | 257 | 1.6 | 4.8 | 0.00 | 0.00 | 0.00 | 100 | 1015.7 |
| 20260506072453 | 5 | 257 | 3.2 | 6.4 | 0.00 | 0.00 | 0.00 | 100 | 1015.7 |
| 20260506071952 | 5 | 258 | 3.2 | 6.4 | 0.00 | 0.00 | 0.00 | 100 | 1015.8 |
| 20260506071450 | 5 | 258 | 1.6 | 4.8 | 0.00 | 0.00 | 0.00 | 100 | 1015.8 |
| 20260506071225 | 5 | 258 | 1.6 | 4.8 | 0.00 | 0.00 | 0.00 | 100 | 1015.9 |
| 20260506070449 | 4 | 258 | 0.0 | 3.2 | 0.00 | 0.00 | 0.00 | 100 | 1015.9 |
| 20260506062442 | 1 | 257 | 1.6 | 4.8 | 0.00 | 0.00 | 0.00 | 100 | 1016.1 |
| 20260506061945 | 1 | 209 | 0.0 | 4.8 | 0.00 | 0.00 | 0.00 | 100 | 1016.0 |
| 20260506061438 | 1 | 209 | 0.0 | 0.0 | 0.00 | 0.00 | 0.00 | 100 | 1016.0 |
| 20260506060936 | 1 | 209 | 0.0 | 1.6 | 0.00 | 0.00 | 0.00 | 100 | 1016.1 |
| 20260506060436 | 1 | 209 | 1.6 | 3.2 | 0.00 | 0.00 | 0.00 | 100 | 1016.1 |
| 20260506050928 | 0 | 209 | 1.6 | 4.8 | 0.00 | 0.00 | 0.00 | 100 | 1016.2 |
| 20260506050427 | 0 | 209 | 0.0 | 0.0 | 0.00 | 0.00 | 0.00 | 100 | 1016.3 |
| 20260506044413 | 0 | 207 | 0.0 | 0.0 | 0.00 | 0.00 | 0.00 | 100 | 1016.3 |
| 20260506043912 | 0 | 207 | 0.0 | 0.0 | 0.00 | 0.00 | 0.00 | 100 | 1016.4 |
| 20260506043412 | 0 | 207 | 1.6 | 4.8 | 0.00 | 0.00 | 0.00 | 100 | 1016.4 |
| 20260506042913 | 0 | 207 | 1.6 | 4.8 | 0.00 | 0.00 | 0.00 | 100 | 1016.3 |
| 20260506042412 | 0 | 207 | 1.6 | 4.8 | 0.00 | 0.00 | 0.00 | 100 | 1016.3 |
| 20260506042203 | 0 | 207 | 0.0 | 3.2 | 0.00 | 0.00 | 0.00 | 100 | 1016.4 |
| 20260506041649 | 0 | 207 | 0.0 | 4.8 | 0.00 | 0.00 | 0.00 | 100 | 1016.5 |
| 20260506041203 | 0 | 207 | 0.0 | 4.8 | 0.00 | 0.00 | 0.00 | 100 | 1016.5 |
| 20260506040412 | 0 | 207 | 0.0 | 3.2 | 0.00 | 0.00 | 0.00 | 100 | 1016.5 |
| 20260506035914 | 0 | 207 | 1.6 | 4.8 | 0.00 | 0.00 | 0.00 | 100 | 1016.5 |
| 20260506035413 | 0 | 207 | 3.2 | 4.8 | 0.00 | 0.00 | 0.00 | 100 | 1016.5 |
| 20260506034914 | 0 | 207 | 3.2 | 4.8 | 0.00 | 0.00 | 0.00 | 100 | 1016.5 |
| 20260506034413 | 0 | 207 | 3.2 | 6.4 | 0.00 | 0.00 | 0.00 | 100 | 1016.5 |
| 20260506034201 | 0 | 207 | 3.2 | 6.4 | 0.00 | 0.00 | 0.00 | 100 | 1016.6 |
| 20260506033412 | 0 | 207 | 3.2 | 6.4 | 0.00 | 0.00 | 0.00 | 100 | 1016.7 |
| 20260506032914 | 0 | 207 | 3.2 | 6.4 | 0.00 | 0.00 | 0.00 | 100 | 1016.7 |
| 20260506032717 | 0 | 207 | 3.2 | 4.8 | 0.00 | 0.00 | 0.00 | 100 | 1016.8 |
| 20260506032431 | 0 | 207 | 4.8 | 6.4 | 0.00 | 0.00 | 0.00 | 100 | 1016.7 |
| 20260506031408 | 0 | 207 | 3.2 | 4.8 | 0.00 | 0.00 | 0.00 | 100 | 1016.7 |
| 20260506030909 | 0 | 207 | 3.2 | 4.8 | 0.00 | 0.00 | 0.00 | 100 | 1016.8 |
| 20260506030410 | 0 | 207 | 3.2 | 4.8 | 0.00 | 0.00 | 0.00 | 100 | 1016.8 |
| 20260506025909 | 0 | 207 | 3.2 | 4.8 | 0.00 | 0.00 | 0.00 | 100 | 1016.8 |
| 20260506025410 | 0 | 207 | 1.6 | 4.8 | 0.00 | 0.00 | 0.00 | 100 | 1016.9 |
| 20260506025212 | 0 | 207 | 1.6 | 3.2 | 0.00 | 0.00 | 0.00 | 100 | 1016.8 |
| 20260506024405 | 0 | 207 | 3.2 | 4.8 | 0.00 | 0.00 | 0.00 | 100 | 1016.8 |
| 20260506024150 | 0 | 207 | 3.2 | 4.8 | 0.00 | 0.00 | 0.00 | 100 | 1016.8 |
| 20260506023648 | 0 | 207 | 1.6 | 4.8 | 0.00 | 0.00 | 0.00 | 100 | 1016.8 |
| 20260506022907 | 0 | 207 | 0.0 | 3.2 | 0.00 | 0.00 | 0.00 | 100 | 1016.8 |
| 20260506022404 | 0 | 207 | 1.6 | 6.4 | 0.00 | 0.00 | 0.00 | 100 | 1016.8 |
| 20260506021902 | 0 | 207 | 3.2 | 6.4 | 0.00 | 0.00 | 0.00 | 100 | 1016.8 |
| 20260506021403 | 0 | 207 | 3.2 | 4.8 | 0.00 | 0.00 | 0.00 | 100 | 1016.9 |
| 20260506021137 | 0 | 207 | 3.2 | 4.8 | 0.00 | 0.00 | 0.00 | 100 | 1016.9 |
| 20260506020402 | 0 | 207 | 3.2 | 4.8 | 0.00 | 0.00 | 0.00 | 100 | 1016.9 |
| 20260506015905 | 0 | 207 | 3.2 | 4.8 | 0.00 | 0.00 | 0.00 | 100 | 1017.0 |
| 20260506015405 | 0 | 207 | 1.6 | 4.8 | 0.00 | 0.00 | 0.00 | 100 | 1017.0 |
| 20260506014903 | 0 | 207 | 1.6 | 6.4 | 0.00 | 0.00 | 0.00 | 100 | 1017.0 |
| 20260506014403 | 0 | 207 | 4.8 | 9.7 | 0.00 | 0.00 | 0.00 | 100 | 1017.0 |
| 20260506013906 | 0 | 207 | 4.8 | 9.7 | 0.00 | 0.00 | 0.00 | 100 | 1017.1 |
| 20260506013404 | 0 | 260 | 3.2 | 6.4 | 0.00 | 0.00 | 0.00 | 100 | 1017.1 |
| 20260506012907 | 0 | 261 | 4.8 | 6.4 | 0.00 | 0.00 | 0.00 | 100 | 1017.2 |
| 20260506012402 | 0 | 261 | 3.2 | 9.7 | 0.00 | 0.00 | 0.00 | 100 | 1017.2 |
| 20260506011904 | 0 | 261 | 1.6 | 9.7 | 0.00 | 0.00 | 0.00 | 100 | 1017.2 |
| 20260506011402 | 0 | 261 | 3.2 | 9.7 | 0.00 | 0.00 | 0.00 | 100 | 1017.3 |
| 20260506011217 | 0 | 234 | 3.2 | 4.8 | 0.00 | 0.00 | 0.00 | 100 | 1017.2 |
| 20260506010921 | 0 | 261 | 4.8 | 9.7 | 0.00 | 0.00 | 0.00 | 100 | 1017.2 |
| 20260506010152 | 0 | 234 | 4.8 | 6.4 | 0.00 | 0.00 | 0.00 | 100 | 1017.1 |
| 20260506005357 | 0 | 233 | 4.8 | 6.4 | 0.00 | 0.00 | 0.00 | 100 | 1017.2 |
| 20260506004857 | 0 | 233 | 4.8 | 11.3 | 0.00 | 0.00 | 0.00 | 100 | 1017.2 |
| 20260506004356 | 0 | 234 | 4.8 | 11.3 | 0.00 | 0.00 | 0.00 | 100 | 1017.3 |
| 20260506003857 | 0 | 234 | 4.8 | 11.3 | 0.00 | 0.00 | 0.00 | 100 | 1017.3 |
| 20260506003357 | 0 | 234 | 4.8 | 11.3 | 0.00 | 0.00 | 0.00 | 100 | 1017.4 |
| 20260506002856 | 0 | 227 | 4.8 | 11.3 | 0.00 | 0.00 | 0.00 | 100 | 1017.4 |
| 20260506002353 | 0 | 228 | 4.8 | 11.3 | 0.00 | 0.00 | 0.00 | 100 | 1017.4 |
| 20260506001853 | 0 | 234 | 4.8 | 11.3 | 0.00 | 0.00 | 0.00 | 100 | 1017.4 |
| 20260506001633 | 0 | 233 | 3.2 | 8.0 | 0.00 | 0.00 | 0.00 | 100 | 1017.4 |
| 20260506000852 | 0 | 234 | 4.8 | 8.0 | 0.00 | 0.00 | 0.00 | 100 | 1017.4 |
| 20260506000629 | 0 | 234 | 4.8 | 8.0 | 0.00 | 0.00 | 0.00 | 100 | 1017.5 |
| 20260505235850 | 0 | 234 | 4.8 | 6.4 | 0.00 | 0.00 | 0.00 | 100 | 1017.4 |
| 20260505235350 | 0 | 234 | 3.2 | 6.4 | 0.00 | 0.00 | 0.00 | 100 | 1017.5 |
| 20260505234851 | 0 | 233 | 3.2 | 4.8 | 0.00 | 0.00 | 0.00 | 100 | 1017.3 |
| 20260505234629 | 0 | 233 | 4.8 | 6.4 | 0.00 | 0.00 | 0.00 | 100 | 1017.4 |
| 20260505233851 | 1 | 233 | 4.8 | 6.4 | 0.00 | 0.00 | 0.00 | 100 | 1017.4 |
| 20260505233345 | 1 | 214 | 3.2 | 6.4 | 0.00 | 0.00 | 0.00 | 100 | 1017.4 |
| 20260505232837 | 1 | 214 | 3.2 | 6.4 | 0.00 | 0.00 | 0.00 | 100 | 1017.4 |
| 20260505232335 | 1 | 214 | 4.8 | 8.0 | 0.00 | 0.00 | 0.00 | 100 | 1017.5 |
| 20260505231837 | 1 | 214 | 3.2 | 8.0 | 0.00 | 0.00 | 0.00 | 100 | 1017.4 |
| 20260505231334 | 1 | 214 | 3.2 | 6.4 | 0.00 | 0.00 | 0.00 | 100 | 1017.5 |
| 20260505230833 | 2 | 214 | 3.2 | 6.4 | 0.00 | 0.00 | 0.00 | 100 | 1017.4 |
| 20260505230416 | 2 | 214 | 4.8 | 8.0 | 0.00 | 0.00 | 0.00 | 100 | 1017.5 |
| 20260505230359 | 2 | 214 | 4.8 | 6.4 | 0.00 | 0.00 | 0.00 | 100 | 1017.5 |
| 20260505225336 | 2 | 214 | 4.8 | 8.0 | 0.00 | 0.00 | 0.00 | 100 | 1017.6 |
| 20260505224840 | 2 | 214 | 4.8 | 6.4 | 0.00 | 0.00 | 0.00 | 100 | 1017.6 |
| 20260505224342 | 3 | 214 | 4.8 | 6.4 | 0.00 | 0.00 | 0.00 | 100 | 1017.7 |
| 20260505223806 | 3 | 214 | 4.8 | 8.0 | 0.00 | 0.00 | 0.00 | 100 | 1017.7 |
| 20260505223305 | 4 | 207 | 3.2 | 8.0 | 0.00 | 0.00 | 0.00 | 100 | 1017.7 |
| 20260505222806 | 4 | 169 | 3.2 | 8.0 | 0.00 | 0.00 | 0.00 | 100 | 1017.6 |
| 20260505222309 | 4 | 203 | 1.6 | 4.8 | 0.00 | 0.00 | 0.00 | 100 | 1017.6 |
| 20260505221808 | 4 | 203 | 1.6 | 3.2 | 0.00 | 0.00 | 0.00 | 100 | 1017.7 |
| 20260505221313 | 5 | 204 | 1.6 | 3.2 | 0.00 | 0.00 | 0.00 | 100 | 1017.7 |
| 20260505221056 | 5 | 204 | 1.6 | 4.8 | 0.00 | 0.00 | 0.00 | 100 | 1017.7 |
| 20260505220305 | 5 | 204 | 1.6 | 4.8 | 0.00 | 0.00 | 0.00 | 100 | 1017.7 |
| 20260505215809 | 5 | 203 | 1.6 | 4.8 | 0.00 | 0.00 | 0.00 | 100 | 1017.8 |
| 20260505215305 | 5 | 204 | 1.6 | 3.2 | 0.00 | 0.00 | 0.00 | 100 | 1017.8 |
| 20260505215019 | 5 | 203 | 1.6 | 4.8 | 0.00 | 0.00 | 0.00 | 100 | 1017.8 |
| 20260505214254 | 5 | 203 | 3.2 | 6.4 | 0.00 | 0.00 | 0.00 | 100 | 1017.7 |
| 20260505213753 | 5 | 204 | 3.2 | 6.4 | 0.00 | 0.00 | 0.00 | 100 | 1017.6 |
| 20260505213252 | 5 | 204 | 3.2 | 4.8 | 0.00 | 0.00 | 0.00 | 100 | 1017.6 |
| 20260505212750 | 5 | 204 | 1.6 | 3.2 | 0.00 | 0.00 | 0.00 | 100 | 1017.6 |
| 20260505212248 | 5 | 204 | 1.6 | 4.8 | 0.00 | 0.00 | 0.00 | 100 | 1017.5 |
| 20260505211748 | 5 | 204 | 1.6 | 6.4 | 0.00 | 0.00 | 0.00 | 100 | 1017.5 |
| 20260505211249 | 5 | 203 | 1.6 | 6.4 | 0.00 | 0.00 | 0.00 | 100 | 1017.5 |
| 20260505210749 | 6 | 194 | 0.0 | 1.6 | 0.00 | 0.00 | 0.00 | 100 | 1017.5 |
| 20260505210248 | 6 | 194 | 0.0 | 1.6 | 0.00 | 0.00 | 0.00 | 100 | 1017.6 |
| 20260505205747 | 6 | 194 | 1.6 | 3.2 | 0.00 | 0.00 | 0.00 | 100 | 1017.6 |
| 20260505205249 | 6 | 194 | 3.2 | 6.4 | 0.00 | 0.00 | 0.00 | 100 | 1017.6 |
| 20260505204749 | 6 | 194 | 3.2 | 6.4 | 0.00 | 0.00 | 0.00 | 100 | 1017.6 |
| 20260505204247 | 6 | 194 | 3.2 | 6.4 | 0.00 | 0.00 | 0.00 | 100 | 1017.5 |
| 20260505203747 | 6 | 194 | 3.2 | 6.4 | 0.00 | 0.00 | 0.00 | 100 | 1017.6 |
| 20260505203243 | 6 | 194 | 3.2 | 6.4 | 0.00 | 0.00 | 0.00 | 100 | 1017.6 |
| 20260505203011 | 6 | 134 | 1.6 | 4.8 | 0.00 | 0.00 | 0.00 | 100 | 1017.5 |
| 20260505202242 | 6 | 134 | 0.0 | 3.2 | 0.00 | 0.00 | 0.00 | 100 | 1017.6 |
| 20260505201742 | 6 | 134 | 0.0 | 1.6 | 0.00 | 0.00 | 0.00 | 100 | 1017.6 |
| 20260505201238 | 6 | 134 | 0.0 | 1.6 | 0.00 | 0.00 | 0.00 | 100 | 1017.6 |
| 20260505200739 | 6 | 134 | 0.0 | 1.6 | 0.00 | 0.00 | 0.00 | 100 | 1017.5 |
| 20260505200236 | 7 | 134 | 1.6 | 3.2 | 0.00 | 0.00 | 0.00 | 100 | 1017.5 |
| 20260505195734 | 7 | 134 | 1.6 | 3.2 | 0.00 | 0.00 | 0.00 | 100 | 1017.6 |
| 20260505195234 | 7 | 134 | 0.0 | 3.2 | 0.00 | 0.00 | 0.00 | 100 | 1017.6 |
| 20260505194731 | 7 | 134 | 0.0 | 0.0 | 0.00 | 0.00 | 0.00 | 100 | 1017.6 |
| 20260505194231 | 7 | 134 | 0.0 | 0.0 | 0.00 | 0.00 | 0.00 | 100 | 1017.6 |
| 20260505193733 | 7 | 134 | 0.0 | 0.0 | 0.00 | 0.00 | 0.00 | 100 | 1017.6 |
| 20260505193230 | 7 | 134 | 0.0 | 0.0 | 0.00 | 0.00 | 0.00 | 100 | 1017.5 |
| 20260505193001 | 7 | 134 | 0.0 | 0.0 | 0.00 | 0.00 | 0.00 | 100 | 1017.6 |
| 20260505192230 | 7 | 134 | 0.0 | 3.2 | 0.00 | 0.00 | 0.00 | 100 | 1017.5 |
| 20260505191733 | 7 | 134 | 1.6 | 3.2 | 0.00 | 0.00 | 0.00 | 100 | 1017.5 |
| 20260505191231 | 7 | 134 | 1.6 | 3.2 | 0.00 | 0.00 | 0.00 | 100 | 1017.4 |
| 20260505190724 | 7 | 134 | 0.0 | 3.2 | 0.00 | 0.00 | 0.00 | 100 | 1017.5 |
| 20260505190218 | 7 | 134 | 0.0 | 3.2 | 0.00 | 0.00 | 0.00 | 100 | 1017.4 |
| 20260505185706 | 7 | 134 | 1.6 | 6.4 | 0.00 | 0.00 | 0.00 | 100 | 1017.4 |
| 20260505185204 | 7 | 134 | 3.2 | 6.4 | 0.00 | 0.00 | 0.00 | 100 | 1017.4 |
| 20260505184702 | 7 | 134 | 4.8 | 11.3 | 0.00 | 0.00 | 0.00 | 100 | 1017.3 |
| 20260505184204 | 7 | 134 | 4.8 | 11.3 | 0.00 | 0.00 | 0.00 | 100 | 1017.3 |
| 20260505183703 | 7 | 123 | 4.8 | 12.9 | 0.00 | 0.00 | 0.00 | 100 | 1017.3 |
| 20260505183430 | 7 | 123 | 3.2 | 12.9 | 0.00 | 0.00 | 0.00 | 100 | 1017.3 |
| 20260505182705 | 8 | 127 | 3.2 | 8.0 | 0.00 | 0.00 | 0.00 | 100 | 1017.3 |
| 20260505182224 | 8 | 129 | 4.8 | 11.3 | 0.00 | 0.00 | 0.00 | 100 | 1017.3 |
| 20260505182218 | 8 | 127 | 4.8 | 8.0 | 0.00 | 0.00 | 0.00 | 100 | 1017.3 |
| 20260505181427 | 8 | 129 | 4.8 | 11.3 | 0.00 | 0.00 | 0.00 | 100 | 1017.3 |
| 20260505180702 | 8 | 138 | 3.2 | 8.0 | 0.00 | 0.00 | 0.00 | 100 | 1017.3 |
| 20260505180203 | 8 | 128 | 3.2 | 8.0 | 0.00 | 0.00 | 0.00 | 100 | 1017.3 |
| 20260505175702 | 8 | 149 | 4.8 | 12.9 | 0.00 | 0.00 | 0.00 | 100 | 1017.3 |
| 20260505175202 | 8 | 148 | 4.8 | 12.9 | 0.00 | 0.00 | 0.00 | 100 | 1017.3 |
| 20260505174701 | 8 | 128 | 4.8 | 12.9 | 0.00 | 0.00 | 0.00 | 100 | 1017.3 |
| 20260505174200 | 8 | 110 | 3.2 | 12.9 | 0.00 | 0.00 | 0.00 | 100 | 1017.3 |
| 20260505173700 | 8 | 117 | 3.2 | 6.4 | 0.00 | 0.00 | 0.00 | 100 | 1017.3 |
| 20260505173159 | 8 | 116 | 3.2 | 6.4 | 0.00 | 0.00 | 0.00 | 100 | 1017.3 |
| 20260505172658 | 8 | 117 | 4.8 | 9.7 | 0.00 | 0.00 | 0.00 | 100 | 1017.3 |
| 20260505172158 | 8 | 109 | 4.8 | 9.7 | 0.00 | 0.00 | 0.00 | 100 | 1017.3 |
| 20260505171659 | 8 | 111 | 4.8 | 11.3 | 0.00 | 0.00 | 0.00 | 100 | 1017.3 |
| 20260505171157 | 8 | 84 | 4.8 | 11.3 | 0.00 | 0.00 | 0.00 | 100 | 1017.2 |
| 20260505170658 | 9 | 103 | 4.8 | 9.7 | 0.00 | 0.00 | 0.00 | 100 | 1017.2 |
| 20260505170157 | 9 | 100 | 1.6 | 8.0 | 0.00 | 0.00 | 0.00 | 100 | 1017.1 |
| 20260505165656 | 8 | 176 | 1.6 | 6.4 | 0.00 | 0.00 | 0.00 | 100 | 1017.1 |
| 20260505165157 | 8 | 177 | 3.2 | 6.4 | 0.00 | 0.00 | 0.00 | 100 | 1017.1 |
| 20260505164659 | 8 | 177 | 3.2 | 6.4 | 0.00 | 0.00 | 0.00 | 100 | 1017.1 |
| 20260505164156 | 9 | 121 | 1.6 | 4.8 | 0.00 | 0.00 | 0.00 | 100 | 1017.2 |
| 20260505163656 | 9 | 121 | 1.6 | 4.8 | 0.00 | 0.00 | 0.00 | 100 | 1017.2 |
| 20260505163159 | 9 | 121 | 3.2 | 4.8 | 0.00 | 0.00 | 0.00 | 100 | 1017.2 |
| 20260505162656 | 9 | 121 | 3.2 | 6.4 | 0.00 | 0.00 | 0.00 | 100 | 1017.2 |
| 20260505162156 | 9 | 121 | 3.2 | 11.3 | 0.00 | 0.00 | 0.00 | 100 | 1017.1 |
| 20260505161656 | 9 | 121 | 3.2 | 11.3 | 0.00 | 0.00 | 0.00 | 100 | 1017.2 |
| 20260505161156 | 9 | 121 | 4.8 | 11.3 | 0.00 | 0.00 | 0.00 | 100 | 1017.2 |
| 20260505160702 | 9 | 119 | 4.8 | 11.3 | 0.00 | 0.00 | 0.00 | 100 | 1017.2 |
| 20260505160157 | 9 | 121 | 4.8 | 11.3 | 0.00 | 0.00 | 0.00 | 100 | 1017.2 |
| 20260505153157 | 9 | 141 | 6.4 | 14.5 | 0.00 | 0.00 | 0.00 | 100 | 1017.2 |
| 20260505152921 | 9 | 121 | 6.4 | 14.5 | 0.00 | 0.00 | 0.00 | 100 | 1017.2 |
| 20260505152151 | 9 | 125 | 6.4 | 17.7 | 0.00 | 0.00 | 0.00 | 100 | 1017.2 |
| 20260505151640 | 9 | 84 | 9.7 | 19.3 | 0.00 | 0.00 | 0.00 | 100 | 1017.3 |
| 20260505151138 | 9 | 37 | 11.3 | 19.3 | 0.00 | 0.00 | 0.00 | 100 | 1017.3 |
| 20260505150637 | 10 | 19 | 9.7 | 19.3 | 0.00 | 0.00 | 0.00 | 100 | 1017.3 |
| 20260505150401 | 10 | 38 | 6.4 | 19.3 | 0.00 | 0.00 | 0.00 | 100 | 1017.3 |
| 20260505140634 | 10 | 20 | 9.7 | 22.5 | 0.00 | 0.00 | 0.00 | 100 | 1017.0 |
| 20260505140134 | 10 | 50 | 9.7 | 22.5 | 0.00 | 0.00 | 0.00 | 100 | 1017.0 |
| 20260505130130 | 11 | 32 | 8.0 | 16.1 | 0.00 | 0.00 | 0.00 | 100 | 1017.1 |
| 20260505124635 | 10 | 331 | 8.0 | 14.5 | 0.00 | 0.00 | 0.00 | 100 | 1017.2 |
| 20260505124130 | 10 | 27 | 8.0 | 16.1 | 0.00 | 0.00 | 0.00 | 100 | 1017.3 |
| 20260505123620 | 11 | 32 | 8.0 | 16.1 | 0.00 | 0.00 | 0.00 | 100 | 1017.3 |
| 20260505123341 | 11 | 323 | 11.3 | 25.7 | 0.00 | 0.00 | 0.00 | 100 | 1017.1 |
| 20260505122609 | 11 | 355 | 12.9 | 25.7 | 0.00 | 0.00 | 0.00 | 100 | 1017.3 |
| 20260505122110 | 10 | 38 | 11.3 | 20.9 | 0.00 | 0.00 | 0.00 | 100 | 1017.1 |
| 20260505121612 | 10 | 38 | 9.7 | 20.9 | 0.00 | 0.00 | 0.00 | 100 | 1017.2 |
| 20260505121110 | 10 | 13 | 9.7 | 20.9 | 0.00 | 0.00 | 0.00 | 100 | 1017.2 |
| 20260505120610 | 9 | 38 | 12.9 | 22.5 | 0.00 | 0.00 | 0.00 | 100 | 1017.2 |
| 20260505120118 | 9 | 31 | 16.1 | 24.1 | 0.00 | 0.00 | 0.00 | 100 | 1017.2 |
| 20260505115610 | 9 | 19 | 16.1 | 27.4 | 0.00 | 0.00 | 0.00 | 100 | 1017.2 |